Flag for U.S.A. Weather past 2 weeks in Des Moines, Iowa, U.S.A.

Now
56 °F

Clear.


Feels Like: 55 °F
Forecast: 47 / 67 °F
Wind: 6 mph from Southwest

Location: Des Moines International Airport

Current Time: Oct 20, 2014 at 12:23:10 AM

Latest Report: Oct 19, 2014 at 9:54 PM


Visibility: 10 mi

Pressure: 29.93 "Hg

Humidity: 70%

Dew point: 46 °F

Location of Des MoinesLocation

Historic Weather in Des Moines — Graph

°F

Des Moines temperature yesterday

Maximum temperature yesterday: 67 °F (at 4:54 PM)
Minimum temperature yesterday: 40 °F (at 3:54 AM)
Average temperature yesterday: 53 °F

Past Weeks' High & Low Weather Summary

 TemperatureHumidityPressure
High75 °F (Oct 16, 2:54 PM)97% (Oct 13, 5:54 AM)30.27 "Hg (Oct 13, 5:54 AM)
Low38 °F (Oct 11, 7:54 AM)24% (Oct 8, 2:54 PM)29.00 "Hg (Oct 17, 12:20 AM)
Average54 °F64%29.92 "Hg
* Reported Oct 4 9:54 PM — Oct 19 9:54 PM, Des Moines, Weather by CustomWeather, © 2014

Note: Actual official high and low records may vary slightly from our data, if they occured in-between our weather recording intervals... More about our weather records

Advertising

Des Moines weather history for previous 24 hours

 ConditionsComfort  
Time TempWeatherWind HumidityBarometerVisibility
9:54 PM
Oct 19
56 °FClear.6 mph70%29.93 "Hg10 mi
8:54 PM58 °FClear.9 mph67%29.93 "Hg10 mi
7:54 PM60 °FClear.10 mph62%29.93 "Hg10 mi
6:54 PM62 °FPassing clouds.9 mph56%29.94 "Hg10 mi
5:54 PM66 °FPassing clouds.10 mph49%29.93 "Hg10 mi
4:54 PM67 °FPassing clouds.13 mph47%29.93 "Hg10 mi
3:54 PM65 °FScattered clouds.15 mph51%29.95 "Hg10 mi
2:54 PM65 °FBroken clouds.13 mph52%29.97 "Hg10 mi
1:54 PM65 °FPartly sunny.15 mph51%30.01 "Hg10 mi
12:54 PM63 °FBroken clouds.16 mph54%30.04 "Hg10 mi
11:54 AM60 °FScattered clouds.20 mph58%30.06 "Hg10 mi
10:54 AM56 °FScattered clouds.16 mph67%30.09 "Hg10 mi
9:54 AM50 °FPassing clouds.14 mph80%30.12 "Hg10 mi
8:54 AM45 °FPassing clouds.9 mph86%30.13 "Hg10 mi
7:54 AM41 °FPassing clouds.8 mph89%30.14 "Hg10 mi
6:54 AM41 °FPassing clouds.7 mph89%30.15 "Hg10 mi
5:54 AM40 °FClear.8 mph89%30.16 "Hg10 mi
4:54 AM40 °FClear.7 mph89%30.16 "Hg10 mi
3:54 AM40 °FPassing clouds.7 mph89%30.16 "Hg10 mi
2:54 AM42 °FClear.6 mph85%30.18 "Hg10 mi
1:54 AM41 °FClear.6 mph89%30.17 "Hg10 mi
12:54 AM42 °FClear.6 mph85%30.17 "Hg10 mi
Weather by CustomWeather, © 2014

See weather overviewHow to use our weather pages